| time (UTC) | temp F | wind direction | speed MPH | gust MPH | rain 1hr in | rain 24hr in | rain mn in | humidity % | barometer mb |
| 20260508075522 | 59 | 112 | 0.0 | 0.0 | 0.00 | 0.00 | 0.00 | 31 | 1014.5 |
| 20260508074022 | 57 | 90 | 6.0 | 0.0 | 0.00 | 0.00 | 0.00 | 29 | 1014.5 |
| 20260508072522 | 56 | 135 | 0.0 | 0.0 | 0.00 | 0.00 | 0.00 | 25 | 1014.7 |
| 20260508071022 | 55 | 135 | 0.0 | 0.0 | 0.00 | 0.00 | 0.00 | 19 | 1014.7 |
| 20260508065522 | 54 | 157 | 0.0 | 0.0 | 0.00 | 0.00 | 0.00 | 12 | 1014.5 |
| 20260508064022 | 52 | 112 | 0.0 | 0.0 | 0.00 | 0.00 | 0.00 | 1014.5 | |
| 20260508062522 | 51 | 157 | 0.0 | 0.0 | 0.00 | 0.00 | 0.00 | 1014.5 | |
| 20260508061022 | 49 | 202 | 0.0 | 0.0 | 0.00 | 0.00 | 0.00 | 1014.5 | |
| 20260508055522 | 48 | 202 | 0.0 | 0.0 | 0.00 | 0.00 | 0.00 | 1014.2 | |
| 20260508054022 | 47 | 202 | 0.0 | 0.0 | 0.00 | 0.00 | 0.00 | 1014.2 | |
| 20260508052522 | 46 | 202 | 0.0 | 0.0 | 0.00 | 0.00 | 0.00 | 1014.2 | |
| 20260508051022 | 46 | 202 | 0.0 | 0.0 | 0.00 | 0.00 | 0.00 | 1014.2 | |
| 20260508045522 | 45 | 202 | 0.0 | 0.0 | 0.00 | 0.00 | 0.00 | 1014.0 | |
| 20260508044022 | 45 | 157 | 0.0 | 0.0 | 0.00 | 0.00 | 0.00 | 1013.7 | |
| 20260508042522 | 44 | 112 | 0.0 | 0.0 | 0.00 | 0.00 | 0.00 | 1013.7 | |
| 20260508041022 | 43 | 112 | 0.0 | 0.0 | 0.00 | 0.00 | 0.00 | 1013.5 | |
| 20260508035522 | 42 | 112 | 0.0 | 0.0 | 0.00 | 0.00 | 0.00 | 1013.7 | |
| 20260508034022 | 41 | 135 | 0.0 | 0.0 | 0.00 | 0.00 | 0.00 | 1013.7 | |
| 20260508032522 | 40 | 112 | 0.0 | 0.0 | 0.00 | 0.00 | 0.00 | 11 | 1013.7 |
| 20260508031022 | 39 | 135 | 0.0 | 0.0 | 0.00 | 0.00 | 0.00 | 13 | 1013.5 |
| 20260508025522 | 39 | 135 | 0.0 | 0.0 | 0.00 | 0.00 | 0.00 | 14 | 1013.5 |
| 20260508024022 | 39 | 135 | 0.0 | 0.0 | 0.00 | 0.00 | 0.00 | 16 | 1013.5 |
| 20260508022522 | 40 | 135 | 0.0 | 0.0 | 0.00 | 0.00 | 0.00 | 15 | 1013.4 |
| 20260508021022 | 40 | 135 | 0.0 | 0.0 | 0.00 | 0.00 | 0.00 | 15 | 1013.5 |
| 20260508015522 | 40 | 135 | 0.0 | 0.0 | 0.00 | 0.00 | 0.00 | 16 | 1013.5 |
| 20260508014022 | 40 | 112 | 0.0 | 0.0 | 0.00 | 0.00 | 0.00 | 20 | 1013.5 |
| 20260508012522 | 40 | 112 | 0.0 | 0.0 | 0.00 | 0.00 | 0.00 | 20 | 1013.5 |
| 20260508011022 | 40 | 112 | 0.0 | 0.0 | 0.00 | 0.00 | 0.00 | 20 | 1013.7 |
| 20260508005522 | 41 | 112 | 0.0 | 0.0 | 0.00 | 0.00 | 0.00 | 19 | 1013.5 |
| 20260508004022 | 41 | 112 | 0.0 | 0.0 | 0.00 | 0.00 | 0.00 | 20 | 1013.5 |
| 20260508002522 | 41 | 112 | 0.0 | 0.0 | 0.00 | 0.00 | 0.00 | 21 | 1013.7 |
| 20260508001022 | 41 | 157 | 0.0 | 0.0 | 0.00 | 0.00 | 0.00 | 22 | 1013.9 |
| 20260507235522 | 41 | 157 | 0.0 | 0.0 | 0.00 | 0.00 | 0.00 | 24 | 1014.0 |
| 20260507234022 | 41 | 157 | 0.0 | 0.0 | 0.00 | 0.00 | 0.00 | 26 | 1014.0 |
| 20260507232522 | 42 | 157 | 0.0 | 0.0 | 0.00 | 0.00 | 0.00 | 27 | 1014.2 |
| 20260507231022 | 42 | 157 | 0.0 | 0.0 | 0.00 | 0.00 | 0.00 | 27 | 1014.5 |
| 20260507225522 | 42 | 157 | 0.0 | 0.0 | 0.00 | 0.00 | 0.00 | 27 | 1014.5 |
| 20260507224022 | 43 | 157 | 0.0 | 0.0 | 0.00 | 0.00 | 0.00 | 28 | 1014.5 |
| 20260507222522 | 43 | 157 | 0.0 | 0.0 | 0.00 | 0.00 | 0.00 | 30 | 1014.5 |
| 20260507221022 | 44 | 157 | 0.0 | 0.0 | 0.00 | 0.00 | 0.00 | 32 | 1014.5 |
| 20260507215522 | 44 | 157 | 0.0 | 0.0 | 0.00 | 0.00 | 0.00 | 33 | 1014.4 |
| 20260507214022 | 45 | 157 | 0.0 | 0.0 | 0.00 | 0.00 | 0.00 | 32 | 1014.4 |
| 20260507212522 | 46 | 157 | 0.0 | 0.0 | 0.00 | 0.00 | 0.00 | 33 | 1014.2 |
| 20260507211022 | 47 | 157 | 0.0 | 0.0 | 0.00 | 0.00 | 0.00 | 34 | 1014.5 |
| 20260507205522 | 48 | 135 | 3.0 | 0.0 | 0.00 | 0.00 | 0.00 | 34 | 1014.7 |
| 20260507204022 | 48 | 135 | 0.0 | 0.0 | 0.00 | 0.00 | 0.00 | 34 | 1014.7 |
| 20260507202522 | 48 | 135 | 0.0 | 0.0 | 0.00 | 0.00 | 0.00 | 36 | 1014.5 |
| 20260507201022 | 47 | 135 | 0.0 | 0.0 | 0.00 | 0.00 | 0.00 | 37 | 1014.4 |
| 20260507195522 | 48 | 135 | 0.0 | 0.0 | 0.00 | 0.00 | 0.00 | 39 | 1014.5 |
| 20260507194022 | 48 | 135 | 0.0 | 0.0 | 0.00 | 0.00 | 0.00 | 40 | 1014.2 |
| 20260507192522 | 49 | 112 | 2.0 | 0.0 | 0.00 | 0.00 | 0.00 | 42 | 1014.0 |
| 20260507191022 | 49 | 112 | 4.0 | 0.0 | 0.00 | 0.00 | 0.00 | 43 | 1013.7 |
| 20260507185522 | 50 | 112 | 0.0 | 0.0 | 0.00 | 0.00 | 0.00 | 45 | 1013.5 |
| 20260507184022 | 51 | 112 | 0.0 | 0.0 | 0.00 | 0.00 | 0.00 | 46 | 1013.4 |
| 20260507182523 | 52 | 112 | 1.0 | 0.0 | 0.00 | 0.00 | 0.00 | 47 | 1013.2 |
| 20260507181022 | 54 | 112 | 3.0 | 0.0 | 0.00 | 0.00 | 0.00 | 47 | 1013.0 |
| 20260507175522 | 55 | 90 | 0.0 | 0.0 | 0.00 | 0.00 | 0.00 | 48 | 1012.9 |
| 20260507174022 | 58 | 112 | 4.0 | 0.0 | 0.00 | 0.00 | 0.00 | 46 | 1012.7 |
| 20260507172523 | 60 | 112 | 4.0 | 0.0 | 0.00 | 0.00 | 0.00 | 44 | 1012.7 |
| 20260507171022 | 62 | 112 | 0.0 | 0.0 | 0.00 | 0.00 | 0.00 | 42 | 1012.7 |
| 20260507165522 | 64 | 90 | 0.0 | 0.0 | 0.00 | 0.00 | 0.00 | 40 | 1012.5 |
| 20260507164022 | 69 | 135 | 2.0 | 0.0 | 0.00 | 0.00 | 0.00 | 36 | 1012.5 |
| 20260507162522 | 75 | 90 | 4.0 | 0.0 | 0.00 | 0.00 | 0.00 | 32 | 1012.5 |
| 20260507161022 | 77 | 157 | 1.0 | 0.0 | 0.00 | 0.00 | 0.00 | 32 | 1012.4 |
| 20260507155522 | 77 | 315 | 0.0 | 0.0 | 0.00 | 0.00 | 0.00 | 31 | 1012.5 |
| 20260507154022 | 74 | 112 | 4.0 | 0.0 | 0.00 | 0.00 | 0.00 | 34 | 1012.4 |
| 20260507152523 | 71 | 180 | 2.0 | 0.0 | 0.00 | 0.00 | 0.00 | 36 | 1012.4 |
| 20260507151022 | 67 | 315 | 5.0 | 0.0 | 0.00 | 0.00 | 0.00 | 39 | 1012.4 |
| 20260507145522 | 67 | 337 | 0.0 | 0.0 | 0.00 | 0.06 | 0.00 | 38 | 1012.4 |
| 20260507144022 | 73 | 292 | 9.0 | 0.0 | 0.00 | 0.06 | 0.00 | 34 | 1012.4 |
| 20260507142522 | 75 | 22 | 3.0 | 0.0 | 0.00 | 0.06 | 0.00 | 34 | 1012.2 |
| 20260507141022 | 64 | 337 | 3.0 | 0.0 | 0.00 | 0.06 | 0.00 | 41 | 1012.5 |
| 20260507135522 | 64 | 90 | 0.0 | 0.0 | 0.00 | 0.06 | 0.00 | 41 | 1012.5 |
| 20260507134022 | 62 | 112 | 0.0 | 0.0 | 0.00 | 0.06 | 0.00 | 42 | 1012.5 |
| 20260507132522 | 63 | 90 | 2.0 | 0.0 | 0.00 | 0.06 | 0.00 | 42 | 1012.7 |
| 20260507131022 | 65 | 112 | 0.0 | 0.0 | 0.00 | 0.06 | 0.00 | 40 | 1012.4 |
| 20260507125522 | 61 | 90 | 0.0 | 0.0 | 0.00 | 0.10 | 0.00 | 43 | 1012.5 |
| 20260507124022 | 62 | 225 | 2.0 | 0.0 | 0.00 | 0.10 | 0.00 | 42 | 1012.4 |
| 20260507122522 | 63 | 337 | 0.0 | 0.0 | 0.00 | 0.10 | 0.00 | 42 | 1012.5 |
| 20260507121022 | 62 | 112 | 2.0 | 0.0 | 0.00 | 0.10 | 0.00 | 42 | 1012.5 |
| 20260507115523 | 66 | 0 | 4.0 | 0.0 | 0.00 | 0.10 | 0.00 | 38 | 1012.5 |
| 20260507114022 | 70 | 292 | 7.0 | 0.0 | 0.00 | 0.10 | 0.00 | 35 | 1012.5 |
| 20260507112522 | 68 | 337 | 3.0 | 0.0 | 0.00 | 0.10 | 0.00 | 36 | 1012.4 |
| 20260507111022 | 69 | 292 | 6.0 | 0.0 | 0.00 | 0.10 | 0.00 | 35 | 1012.4 |
| 20260507105522 | 65 | 225 | 5.0 | 0.0 | 0.00 | 0.10 | 0.00 | 37 | 1012.5 |
| 20260507104022 | 64 | 0 | 4.0 | 0.0 | 0.00 | 0.10 | 0.00 | 37 | 1012.7 |
| 20260507102522 | 63 | 180 | 2.0 | 0.0 | 0.00 | 0.10 | 0.00 | 37 | 1012.5 |
| 20260507101022 | 62 | 247 | 6.0 | 0.0 | 0.00 | 0.10 | 0.00 | 36 | 1012.7 |
| 20260507095522 | 60 | 22 | 0.0 | 0.0 | 0.00 | 0.10 | 0.00 | 35 | 1012.7 |
| 20260507094022 | 57 | 292 | 0.0 | 0.0 | 0.00 | 0.10 | 0.00 | 35 | 1012.7 |
| 20260507092522 | 57 | 202 | 0.0 | 0.0 | 0.00 | 0.10 | 0.00 | 34 | 1012.5 |
| 20260507091022 | 57 | 270 | 5.0 | 0.0 | 0.00 | 0.10 | 0.00 | 30 | 1012.7 |
| 20260507085522 | 56 | 315 | 1.0 | 0.0 | 0.00 | 0.10 | 0.00 | 22 | 1012.2 |
| 20260507084022 | 52 | 315 | 0.0 | 0.0 | 0.00 | 0.10 | 0.00 | 19 | 1012.2 |
| 20260507082522 | 50 | 292 | 0.0 | 0.0 | 0.00 | 0.10 | 0.00 | 20 | 1012.2 |
| 20260507081022 | 50 | 315 | 1.0 | 0.0 | 0.00 | 0.10 | 0.00 | 23 | 1012.2 |